OBJECT B, 44311

Orbit data source: Space-Track

You're viewing an Uncataloged Satellite

Recently launched and/or uncataloged satellites may have evolving metadata. Metadata may include but not limited to: Owner, Maufacturer, Bus, Motor, and Mission.

OBJECT B, 44311 is a Chinese satellite in LEO that was launched on Wed, 05 Jun 2019 UTC via a CHANG ZHENG 11 launch vehicle from the Yellow Sea Launch Area, China (YSLA). Unknown objects in Earth's orbit typically refer to objects detected orbiting the Earth but have not yet been identified or cataloged. These objects could be anything from previously untracked satellites, spent rocket stages, debris from satellite collisions, or even natural meteoroids temporarily captured by Earth's gravity.

Loading next visibility...
OBJECT B details
Identifier
44311, 2019-032B
Orbit
LEO
Last TLE update8 hours ago
Origin
Flag of CNTZJ/GUOG (CN / PRC)
ManufacturerGUOG?
MissionOperational Commercial Communications
Bus & MotorCUBESAT 6U?, Unknown motor
Mass8 kg wet, 8 kg dry
Launch date (UTC)
2019-06-05 (6 years ago)
Launch vehicle
CHANG ZHENG 11
Launch site
Yellow Sea Launch Area, China (YSLA)
Object typeUnknown
Shape & HBRBox, 0.3 m
Radar Cross Section0.080 m², Medium (>0.1 m² and < 1m²)

Expand to show TLE details & history

TLE from 8 hours ago
0 OBJECT B
1 44311U 19032B   24361.24223987  .00019963  00000-0  93538-3 0  9990
2 44311  44.9761  42.5699 0008552  89.4046 270.7813 15.19422544305791
Epoch: 2024-12-26T05:48Z
Definitive object data (Epoch: 2024-12-26T05:48:49.524Z)
Latitude-0.00006°
Longitude-139.86096°
Altitude507.505 km
Speed7.612 km/s
True Right ascension02h 50m 16s
True Declination0° 00' 00"
Sunlit
Object was in full shadow at TLE epoch
Visualization TLE readout
Latitude44.18025°
Longitude-37.02685°
Altitude505.337 km
Speed7.621 km/s
Apparent Right ascension05h 37m 55s
Apparent Declination8° 29' 51"
Sunlit
Object is in full shadow
Visualization observer readout
Local Sidereal Time13:30:21
Azimuth295.299° NW
Elevation-15.224°
Doppler factor1
Orbital elements
Apogee altitude515.082 km
Perigee altitude503.302 km
Semi-major axis6,887.329 km
Eccentricity0.0008552
Inclination44.9761°
RAAN42.5699°
Arg. of periapsis89.4046°
True anomaly270.68331°
Mean anomaly270.7813°
Eccentric anomaly270.7323°
Mean motion3.79723 °/min
BSTAR0.00093538
Orbital period94.81 mins
Loading maneuver chart data...
Loading historical data...
Loading historical data...
Loading historical data...
Loading historical data...
Loading historical data...
Loading historical data...
Loading historical data...

OBJECT B Visibility forecast

Observer location: undefined°, undefined

Span
Click to sort rows by Start time (UTC) header in descending order
Start Az.
Max El. time (UTC)
Max El. Az.
Max El.
End time (UTC)
End Az.
6 mins2024-12-27 05:39:34.251Z208.984° SW2024-12-27 05:42:34.251Z159.807° S27.319°2024-12-27 05:45:34.251Z88.597° E
6 mins2024-12-27 07:19:34.251Z263.907° W2024-12-27 07:22:34.251Z12.934° NNE40.359°2024-12-27 07:25:34.251Z62.219° ENE
5 mins2024-12-27 08:59:34.251Z300.538° NW2024-12-27 09:01:34.251Z345.892° N30.814°2024-12-27 09:04:34.251Z62.708° ENE
5 mins2024-12-27 10:39:34.251Z303.618° NW2024-12-27 10:41:34.251Z11.097° NNE41.766°2024-12-27 10:44:34.251Z98.359° ESE
5 mins2024-12-27 12:18:34.251Z267.376° W2024-12-27 12:20:34.251Z223.44° SW27.057°2024-12-27 12:23:34.251Z157.634° S
|